Time,TemperatureF,DewpointF,PressureIn,WindDirection,WindDirectionDegrees,WindSpeedMPH,WindSpeedGustMPH,Humidity,HourlyPrecipIn,Conditions,Clouds,dailyrainin,SolarRadiationWatts/m^2,SoftwareType,DateUTC
2013-08-17 00:00:00,72.4,47.6,29.77,SW,236,0.0,-999.0,31,-99.99,,,0.00,0.0,cwc,2013-08-17 06:00:00,
2013-08-17 00:05:00,71.9,46.7,29.77,SW,236,0.0,-999.0,30,-99.99,,,0.00,0.0,cwc,2013-08-17 06:05:00,
2013-08-17 00:10:00,71.4,46.6,29.77,SW,236,0.0,-999.0,31,-99.99,,,0.00,0.0,cwc,2013-08-17 06:10:00,
2013-08-17 00:15:00,70.9,46.4,29.77,SW,236,0.0,-999.0,32,-99.99,,,0.00,0.0,cwc,2013-08-17 06:15:00,
2013-08-17 00:20:00,70.4,45.9,29.77,SW,236,0.0,-999.0,32,-99.99,,,0.00,0.0,cwc,2013-08-17 06:20:00,
2013-08-17 00:25:00,70.0,45.9,29.78,SW,236,0.0,-999.0,33,-99.99,,,0.00,0.0,cwc,2013-08-17 06:25:00,
2013-08-17 00:30:00,69.6,46.2,29.78,SW,236,0.0,-999.0,35,-99.99,,,0.00,0.0,cwc,2013-08-17 06:30:00,
2013-08-17 00:40:00,68.7,44.9,29.78,SW,236,0.0,-999.0,34,-99.99,,,0.00,0.0,cwc,2013-08-17 06:40:00,
2013-08-17 00:45:00,68.2,44.4,29.78,SW,236,0.0,-999.0,34,-99.99,,,0.00,0.0,cwc,2013-08-17 06:45:00,
2013-08-17 00:55:00,67.2,43.8,29.78,SW,236,1.0,-999.0,35,-99.99,,,0.00,0.0,cwc,2013-08-17 06:55:00,
2013-08-17 01:00:00,66.8,43.4,29.78,SW,236,0.0,-999.0,35,-99.99,,,0.00,0.0,cwc,2013-08-17 07:00:00,
2013-08-17 01:05:00,66.6,43.6,29.79,SW,236,0.0,-999.0,36,-99.99,,,0.00,0.0,cwc,2013-08-17 07:05:00,
2013-08-17 01:10:00,66.5,43.5,29.79,SW,236,0.0,-999.0,36,-99.99,,,0.00,0.0,cwc,2013-08-17 07:10:00,
2013-08-17 01:15:00,66.5,43.5,29.79,SW,236,0.0,-999.0,36,-99.99,,,0.00,0.0,cwc,2013-08-17 07:15:00,
2013-08-17 01:20:00,66.5,43.5,29.79,SW,236,0.0,-999.0,36,-99.99,,,0.00,0.0,cwc,2013-08-17 07:20:00,
2013-08-17 01:25:00,66.3,43.3,29.79,SW,236,1.0,-999.0,36,-99.99,,,0.00,0.0,cwc,2013-08-17 07:25:00,
2013-08-17 01:30:00,66.1,43.4,29.79,SW,236,0.0,-999.0,37,-99.99,,,0.00,0.0,cwc,2013-08-17 07:30:00,
2013-08-17 01:40:00,65.3,42.6,29.79,SW,236,0.0,-999.0,37,-99.99,,,0.00,0.0,cwc,2013-08-17 07:40:00,
2013-08-17 01:45:00,64.8,42.1,29.79,SW,236,2.0,-999.0,37,-99.99,,,0.00,0.0,cwc,2013-08-17 07:45:00,
2013-08-17 01:50:00,64.5,42.2,29.79,SW,236,0.0,-999.0,38,-99.99,,,0.00,0.0,cwc,2013-08-17 07:50:00,
2013-08-17 01:55:00,64.3,42.0,29.79,SW,236,0.0,-999.0,38,-99.99,,,0.00,0.0,cwc,2013-08-17 07:55:00,
2013-08-17 02:00:00,63.8,41.5,29.79,SW,236,0.0,-999.0,38,-99.99,,,0.00,0.0,cwc,2013-08-17 08:00:00,
2013-08-17 02:05:00,63.4,41.1,29.80,SW,236,1.0,-999.0,38,-99.99,,,0.00,0.0,cwc,2013-08-17 08:05:00,
2013-08-17 02:10:00,63.4,41.1,29.80,SW,236,0.0,-999.0,38,-99.99,,,0.00,0.0,cwc,2013-08-17 08:10:00,
2013-08-17 02:15:00,63.6,41.3,29.80,SW,236,1.0,-999.0,38,-99.99,,,0.00,0.0,cwc,2013-08-17 08:15:00,
2013-08-17 02:25:00,63.4,41.1,29.80,SW,236,3.0,-999.0,38,-99.99,,,0.00,0.0,cwc,2013-08-17 08:25:00,
2013-08-17 02:30:00,62.8,40.5,29.80,SW,236,0.0,-999.0,38,-99.99,,,0.00,0.0,cwc,2013-08-17 08:30:00,
2013-08-17 02:35:00,62.4,40.4,29.80,SW,236,0.0,-999.0,39,-99.99,,,0.00,0.0,cwc,2013-08-17 08:35:00,
2013-08-17 02:45:00,61.7,40.1,29.80,SW,236,0.0,-999.0,40,-99.99,,,0.00,0.0,cwc,2013-08-17 08:45:00,
2013-08-17 02:55:00,61.4,39.8,29.80,SW,236,2.0,-999.0,40,-99.99,,,0.00,0.0,cwc,2013-08-17 08:55:00,
2013-08-17 03:00:00,61.1,39.5,29.80,SW,236,2.0,-999.0,40,-99.99,,,0.00,0.0,cwc,2013-08-17 09:00:00,
2013-08-17 03:05:00,60.7,39.1,29.80,SW,236,3.0,-999.0,40,-99.99,,,0.00,0.0,cwc,2013-08-17 09:05:00,
2013-08-17 03:10:00,60.6,39.4,29.80,SW,236,1.0,-999.0,41,-99.99,,,0.00,0.0,cwc,2013-08-17 09:10:00,
2013-08-17 03:20:00,60.6,39.0,29.80,SW,236,3.0,-999.0,40,-99.99,,,0.00,0.0,cwc,2013-08-17 09:20:00,
2013-08-17 03:25:00,60.1,38.9,29.80,SW,236,3.0,-999.0,41,-99.99,,,0.00,0.0,cwc,2013-08-17 09:25:00,
2013-08-17 03:30:00,59.6,38.4,29.80,SW,236,2.0,-999.0,41,-99.99,,,0.00,0.0,cwc,2013-08-17 09:30:00,
2013-08-17 03:35:00,59.6,38.4,29.80,SW,236,1.0,-999.0,41,-99.99,,,0.00,0.0,cwc,2013-08-17 09:35:00,
2013-08-17 03:40:00,59.6,38.7,29.80,SW,236,2.0,-999.0,42,-99.99,,,0.00,0.0,cwc,2013-08-17 09:40:00,
2013-08-17 03:50:00,59.0,38.1,29.80,SW,236,2.0,-999.0,42,-99.99,,,0.00,0.0,cwc,2013-08-17 09:50:00,
2013-08-17 03:55:00,59.1,38.2,29.80,SW,236,3.0,-999.0,42,-99.99,,,0.00,0.0,cwc,2013-08-17 09:55:00,
2013-08-17 04:00:00,59.2,38.3,29.79,SW,236,0.0,-999.0,42,-99.99,,,0.00,0.0,cwc,2013-08-17 10:00:00,
2013-08-17 04:10:00,58.8,37.9,29.79,SW,236,4.0,-999.0,42,-99.99,,,0.00,0.0,cwc,2013-08-17 10:10:00,
2013-08-17 04:15:00,58.4,37.9,29.79,SW,236,1.0,-999.0,43,-99.99,,,0.00,0.0,cwc,2013-08-17 10:15:00,
2013-08-17 04:20:00,58.4,37.9,29.79,SW,236,0.0,-999.0,43,-99.99,,,0.00,0.0,cwc,2013-08-17 10:20:00,
2013-08-17 04:25:00,58.2,37.7,29.79,SW,236,1.0,-999.0,43,-99.99,,,0.00,0.0,cwc,2013-08-17 10:25:00,
2013-08-17 04:30:00,58.0,37.5,29.80,SW,236,0.0,-999.0,43,-99.99,,,0.00,0.0,cwc,2013-08-17 10:30:00,
2013-08-17 04:35:00,57.8,37.6,29.80,SW,236,2.0,-999.0,44,-99.99,,,0.00,0.0,cwc,2013-08-17 10:35:00,
2013-08-17 04:40:00,57.5,37.3,29.80,SW,236,2.0,-999.0,44,-99.99,,,0.00,0.0,cwc,2013-08-17 10:40:00,
2013-08-17 04:45:00,57.5,37.3,29.80,SW,236,2.0,-999.0,44,-99.99,,,0.00,0.0,cwc,2013-08-17 10:45:00,
2013-08-17 04:55:00,57.5,37.3,29.81,SW,236,5.0,-999.0,44,-99.99,,,0.00,0.0,cwc,2013-08-17 10:55:00,
2013-08-17 05:00:00,57.3,37.5,29.81,SW,236,0.0,-999.0,45,-99.99,,,0.00,0.0,cwc,2013-08-17 11:00:00,
2013-08-17 05:05:00,57.3,37.5,29.81,SW,236,0.0,-999.0,45,-99.99,,,0.00,0.0,cwc,2013-08-17 11:05:00,
2013-08-17 05:10:00,57.3,37.5,29.81,SW,236,0.0,-999.0,45,-99.99,,,0.00,0.0,cwc,2013-08-17 11:10:00,
2013-08-17 05:15:00,57.2,37.0,29.81,SW,236,0.0,-999.0,44,-99.99,,,0.00,0.0,cwc,2013-08-17 11:15:00,
2013-08-17 05:20:00,57.0,37.2,29.81,SW,236,0.0,-999.0,45,-99.99,,,0.00,0.0,cwc,2013-08-17 11:20:00,
2013-08-17 05:30:00,56.6,37.2,29.81,SW,236,2.0,-999.0,46,-99.99,,,0.00,0.0,cwc,2013-08-17 11:30:00,
2013-08-17 05:35:00,56.3,36.9,29.82,SW,236,2.0,-999.0,46,-99.99,,,0.00,0.0,cwc,2013-08-17 11:35:00,
2013-08-17 05:40:00,56.1,37.4,29.82,SW,236,0.0,-999.0,48,-99.99,,,0.00,0.0,cwc,2013-08-17 11:40:00,
2013-08-17 05:45:00,55.9,36.8,29.82,SW,236,0.0,-999.0,47,-99.99,,,0.00,0.0,cwc,2013-08-17 11:45:00,
2013-08-17 05:50:00,55.7,36.6,29.82,SW,236,1.0,-999.0,47,-99.99,,,0.00,0.0,cwc,2013-08-17 11:50:00,
2013-08-17 05:55:00,55.6,36.5,29.82,SW,236,3.0,-999.0,47,-99.99,,,0.00,0.0,cwc,2013-08-17 11:55:00,
2013-08-17 06:00:00,55.7,37.0,29.82,SW,236,1.0,-999.0,48,-99.99,,,0.00,0.0,cwc,2013-08-17 12:00:00,
2013-08-17 06:05:00,55.6,37.6,29.82,SW,236,0.0,-999.0,50,-99.99,,,0.00,0.0,cwc,2013-08-17 12:05:00,
2013-08-17 06:10:00,55.5,37.1,29.82,SW,236,0.0,-999.0,49,-99.99,,,0.00,0.0,cwc,2013-08-17 12:10:00,
2013-08-17 06:15:00,55.3,36.9,29.82,SW,236,0.0,-999.0,49,-99.99,,,0.00,0.0,cwc,2013-08-17 12:15:00,
2013-08-17 06:20:00,55.1,36.7,29.83,SW,236,0.0,-999.0,49,-99.99,,,0.00,0.0,cwc,2013-08-17 12:20:00,
2013-08-17 06:25:00,54.9,36.5,29.83,SW,236,0.0,-999.0,49,-99.99,,,0.00,0.0,cwc,2013-08-17 12:25:00,
2013-08-17 06:30:00,54.8,36.4,29.83,SW,236,0.0,-999.0,49,-99.99,,,0.00,0.0,cwc,2013-08-17 12:30:00,
2013-08-17 06:35:00,54.9,36.5,29.83,SW,236,2.0,-999.0,49,-99.99,,,0.00,5.0,cwc,2013-08-17 12:35:00,
2013-08-17 06:40:00,54.8,36.4,29.83,SW,236,3.0,-999.0,49,-99.99,,,0.00,7.0,cwc,2013-08-17 12:40:00,
2013-08-17 06:45:00,55.0,36.6,29.83,SW,236,0.0,-999.0,49,-99.99,,,0.00,9.0,cwc,2013-08-17 12:45:00,
2013-08-17 06:50:00,55.0,37.0,29.84,SW,236,1.0,-999.0,50,-99.99,,,0.00,11.0,cwc,2013-08-17 12:50:00,
2013-08-17 06:55:00,54.9,37.3,29.84,SW,236,0.0,-999.0,51,-99.99,,,0.00,12.0,cwc,2013-08-17 12:55:00,
2013-08-17 07:00:00,54.8,37.9,29.85,SW,236,0.0,-999.0,53,-99.99,,,0.00,16.0,cwc,2013-08-17 13:00:00,
2013-08-17 07:05:00,54.6,38.0,29.85,SW,236,0.0,-999.0,54,-99.99,,,0.00,19.0,cwc,2013-08-17 13:05:00,
2013-08-17 07:10:00,54.3,36.7,29.85,SW,236,3.0,-999.0,51,-99.99,,,0.00,23.0,cwc,2013-08-17 13:10:00,
2013-08-17 07:15:00,54.3,36.7,29.85,SW,235,4.0,-999.0,51,-99.99,,,0.00,25.0,cwc,2013-08-17 13:15:00,
2013-08-17 07:20:00,54.6,37.0,29.85,SW,234,3.0,-999.0,51,-99.99,,,0.00,30.0,cwc,2013-08-17 13:20:00,
2013-08-17 07:25:00,55.4,37.8,29.85,SW,234,0.0,-999.0,51,-99.99,,,0.00,33.0,cwc,2013-08-17 13:25:00,
2013-08-17 07:30:00,55.8,38.2,29.84,SW,235,0.0,-999.0,51,-99.99,,,0.00,37.0,cwc,2013-08-17 13:30:00,
2013-08-17 07:40:00,56.0,39.1,29.84,SW,235,0.0,-999.0,53,-99.99,,,0.00,65.0,cwc,2013-08-17 13:40:00,
2013-08-17 07:45:00,56.0,39.1,29.84,SW,234,0.0,-999.0,53,-99.99,,,0.00,86.0,cwc,2013-08-17 13:45:00,
2013-08-17 07:50:00,56.0,39.4,29.84,SW,235,2.0,-999.0,54,-99.99,,,0.00,139.0,cwc,2013-08-17 13:50:00,
2013-08-17 07:55:00,56.1,38.8,29.84,SW,236,2.0,-999.0,52,-99.99,,,0.00,93.0,cwc,2013-08-17 13:55:00,
2013-08-17 08:00:00,56.2,39.3,29.84,SW,236,0.0,-999.0,53,-99.99,,,0.00,162.0,cwc,2013-08-17 14:00:00,
2013-08-17 08:05:00,56.7,39.1,29.84,SW,236,0.0,-999.0,51,-99.99,,,0.00,199.0,cwc,2013-08-17 14:05:00,
2013-08-17 08:10:00,57.5,40.6,29.84,SW,236,0.0,-999.0,53,-99.99,,,0.00,288.0,cwc,2013-08-17 14:10:00,
2013-08-17 08:15:00,58.9,41.3,29.85,SW,236,0.0,-999.0,51,-99.99,,,0.00,322.0,cwc,2013-08-17 14:15:00,
2013-08-17 08:20:00,60.2,41.5,29.85,SW,236,0.0,-999.0,48,-99.99,,,0.00,334.0,cwc,2013-08-17 14:20:00,
2013-08-17 08:25:00,61.6,41.8,29.85,SW,236,0.0,-999.0,45,-99.99,,,0.00,348.0,cwc,2013-08-17 14:25:00,
2013-08-17 08:30:00,62.9,42.7,29.85,SW,236,0.0,-999.0,44,-99.99,,,0.00,371.0,cwc,2013-08-17 14:30:00,
2013-08-17 08:35:00,64.4,43.5,29.85,SW,236,0.0,-999.0,42,-99.99,,,0.00,388.0,cwc,2013-08-17 14:35:00,
2013-08-17 08:40:00,65.7,44.5,29.84,SW,236,3.0,-999.0,41,-99.99,,,0.00,406.0,cwc,2013-08-17 14:40:00,
2013-08-17 08:50:00,67.7,45.4,29.84,SW,236,0.0,-999.0,38,-99.99,,,0.00,446.0,cwc,2013-08-17 14:50:00,
2013-08-17 08:55:00,68.4,45.7,29.84,SW,236,1.0,-999.0,37,-99.99,,,0.00,461.0,cwc,2013-08-17 14:55:00,
2013-08-17 09:00:00,69.0,46.3,29.83,SW,236,0.0,-999.0,37,-99.99,,,0.00,478.0,cwc,2013-08-17 15:00:00,
2013-08-17 09:05:00,69.7,46.7,29.84,SW,236,4.0,-999.0,36,-99.99,,,0.00,497.0,cwc,2013-08-17 15:05:00,
2013-08-17 09:10:00,70.3,47.6,29.83,WSW,257,3.0,-999.0,37,-99.99,,,0.00,513.0,cwc,2013-08-17 15:10:00,
2013-08-17 09:15:00,71.0,48.0,29.83,NW,314,3.0,-999.0,36,-99.99,,,0.00,534.0,cwc,2013-08-17 15:15:00,
2013-08-17 09:25:00,72.1,48.3,29.83,NW,318,2.0,-999.0,34,-99.99,,,0.00,559.0,cwc,2013-08-17 15:25:00,
2013-08-17 09:30:00,72.9,48.8,29.83,NW,322,0.0,-999.0,33,-99.99,,,0.00,573.0,cwc,2013-08-17 15:30:00,
2013-08-17 09:40:00,75.1,50.6,29.83,NW,322,0.0,-999.0,32,-99.99,,,0.00,601.0,cwc,2013-08-17 15:40:00,
2013-08-17 09:45:00,76.4,51.6,29.82,NW,322,0.0,-999.0,31,-99.99,,,0.00,615.0,cwc,2013-08-17 15:45:00,
2013-08-17 09:50:00,77.4,52.2,29.82,NW,322,2.0,-999.0,30,-99.99,,,0.00,631.0,cwc,2013-08-17 15:50:00,
2013-08-17 10:00:00,78.5,52.9,29.82,NW,322,0.0,-999.0,29,-99.99,,,0.00,654.0,cwc,2013-08-17 16:00:00,
2013-08-17 10:05:00,79.0,53.1,29.82,NW,322,0.0,-999.0,28,-99.99,,,0.00,668.0,cwc,2013-08-17 16:05:00,
2013-08-17 10:10:00,80.0,54.1,29.82,NW,323,0.0,-999.0,28,-99.99,,,0.00,682.0,cwc,2013-08-17 16:10:00,
2013-08-17 10:15:00,80.6,54.3,29.82,NW,323,2.0,-999.0,27,-99.99,,,0.00,698.0,cwc,2013-08-17 16:15:00,
2013-08-17 10:20:00,80.8,54.5,29.82,NW,323,1.0,-999.0,27,-99.99,,,0.00,708.0,cwc,2013-08-17 16:20:00,
2013-08-17 10:25:00,81.6,55.7,29.81,NW,323,0.0,-999.0,28,-99.99,,,0.00,722.0,cwc,2013-08-17 16:25:00,
2013-08-17 10:30:00,82.6,56.0,29.81,NW,323,4.0,-999.0,26,-99.99,,,0.00,735.0,cwc,2013-08-17 16:30:00,
2013-08-17 10:40:00,83.3,56.7,29.81,NNW,329,2.0,-999.0,26,-99.99,,,0.00,758.0,cwc,2013-08-17 16:40:00,
2013-08-17 10:45:00,83.4,56.8,29.81,NNW,329,1.0,-999.0,26,-99.99,,,0.00,770.0,cwc,2013-08-17 16:45:00,
2013-08-17 10:50:00,83.5,56.9,29.80,NNW,329,3.0,-999.0,26,-99.99,,,0.00,780.0,cwc,2013-08-17 16:50:00,
2013-08-17 10:55:00,83.2,56.6,29.80,NNW,334,2.0,-999.0,26,-99.99,,,0.00,789.0,cwc,2013-08-17 16:55:00,
2013-08-17 11:00:00,83.5,57.2,29.80,NNW,334,3.0,-999.0,27,-99.99,,,0.00,803.0,cwc,2013-08-17 17:00:00,
2013-08-17 11:10:00,83.9,57.3,29.79,NNW,334,0.0,-999.0,26,-99.99,,,0.00,823.0,cwc,2013-08-17 17:10:00,
2013-08-17 11:15:00,84.9,58.3,29.79,NNW,335,3.0,-999.0,26,-99.99,,,0.00,831.0,cwc,2013-08-17 17:15:00,
2013-08-17 11:20:00,85.4,58.4,29.78,NNW,348,0.0,-999.0,25,-99.99,,,0.00,840.0,cwc,2013-08-17 17:20:00,
2013-08-17 11:25:00,85.6,58.6,29.78,NNW,348,0.0,-999.0,25,-99.99,,,0.00,849.0,cwc,2013-08-17 17:25:00,
2013-08-17 11:30:00,85.9,58.9,29.78,North,355,4.0,-999.0,25,-99.99,,,0.00,860.0,cwc,2013-08-17 17:30:00,
2013-08-17 11:35:00,86.1,59.5,29.78,North,355,2.0,-999.0,26,-99.99,,,0.00,868.0,cwc,2013-08-17 17:35:00,
2013-08-17 11:40:00,86.3,59.3,29.77,North,355,0.0,-999.0,25,-99.99,,,0.00,877.0,cwc,2013-08-17 17:40:00,
2013-08-17 11:45:00,86.6,59.6,29.77,North,360,3.0,-999.0,25,-99.99,,,0.00,882.0,cwc,2013-08-17 17:45:00,
2013-08-17 11:55:00,87.7,60.0,29.77,North,5,2.0,-999.0,23,-99.99,,,0.00,895.0,cwc,2013-08-17 17:55:00,
2013-08-17 12:00:00,87.7,60.3,29.76,NE,40,7.0,-999.0,24,-99.99,,,0.00,902.0,cwc,2013-08-17 18:00:00,
2013-08-17 12:05:00,87.6,59.9,29.76,NNE,30,1.0,-999.0,23,-99.99,,,0.00,909.0,cwc,2013-08-17 18:05:00,
2013-08-17 12:10:00,87.9,59.8,29.76,NNE,22,4.0,-999.0,22,-99.99,,,0.00,916.0,cwc,2013-08-17 18:10:00,
2013-08-17 12:15:00,87.8,59.7,29.75,NNE,22,3.0,-999.0,22,-99.99,,,0.00,925.0,cwc,2013-08-17 18:15:00,
2013-08-17 12:20:00,87.7,60.0,29.75,NNE,21,3.0,-999.0,23,-99.99,,,0.00,939.0,cwc,2013-08-17 18:20:00,
2013-08-17 12:25:00,88.0,60.3,29.74,NNE,24,3.0,-999.0,23,-99.99,,,0.00,972.0,cwc,2013-08-17 18:25:00,
2013-08-17 12:30:00,88.5,60.4,29.74,NNE,24,1.0,-999.0,22,-99.99,,,0.00,858.0,cwc,2013-08-17 18:30:00,
2013-08-17 12:35:00,88.5,60.4,29.74,NNE,20,4.0,-999.0,22,-99.99,,,0.00,733.0,cwc,2013-08-17 18:35:00,
2013-08-17 12:40:00,88.1,59.7,29.73,NNE,18,0.0,-999.0,21,-99.99,,,0.00,668.0,cwc,2013-08-17 18:40:00,
2013-08-17 12:45:00,88.2,59.4,29.73,SW,232,0.0,-999.0,20,-99.99,,,0.00,601.0,cwc,2013-08-17 18:45:00,
2013-08-17 12:55:00,89.4,60.6,29.73,SW,228,2.0,-999.0,20,-99.99,,,0.00,1039.0,cwc,2013-08-17 18:55:00,
2013-08-17 13:00:00,89.6,60.8,29.72,SSW,209,2.0,-999.0,20,-99.99,,,0.00,1027.0,cwc,2013-08-17 19:00:00,
2013-08-17 13:05:00,89.6,60.4,29.72,SSW,211,2.0,-999.0,19,-99.99,,,0.00,981.0,cwc,2013-08-17 19:05:00,
2013-08-17 13:10:00,89.7,60.5,29.71,North,11,5.0,-999.0,19,-99.99,,,0.00,1072.0,cwc,2013-08-17 19:10:00,
2013-08-17 13:15:00,90.1,60.9,29.71,NNW,338,4.0,-999.0,19,-99.99,,,0.00,902.0,cwc,2013-08-17 19:15:00,
2013-08-17 13:20:00,90.6,61.4,29.71,NNW,340,1.0,-999.0,19,-99.99,,,0.00,998.0,cwc,2013-08-17 19:20:00,
2013-08-17 13:25:00,90.9,61.7,29.70,NE,53,3.0,-999.0,19,-99.99,,,0.00,1055.0,cwc,2013-08-17 19:25:00,
2013-08-17 13:30:00,91.1,61.6,29.70,SSW,192,10.0,-999.0,18,-99.99,,,0.00,1146.0,cwc,2013-08-17 19:30:00,
2013-08-17 13:35:00,90.9,61.4,29.70,North,360,4.0,-999.0,18,-99.99,,,0.00,408.0,cwc,2013-08-17 19:35:00,
2013-08-17 13:45:00,90.1,60.6,29.69,SW,234,2.0,-999.0,18,-99.99,,,0.00,466.0,cwc,2013-08-17 19:45:00,
2013-08-17 13:50:00,90.1,60.6,29.69,NNW,332,0.0,-999.0,18,-99.99,,,0.00,584.0,cwc,2013-08-17 19:50:00,
2013-08-17 14:00:00,90.8,60.9,29.68,SSW,197,3.0,-999.0,17,-99.99,,,0.00,1102.0,cwc,2013-08-17 20:00:00,
2013-08-17 14:05:00,91.2,61.3,29.68,North,355,9.0,-999.0,17,-99.99,,,0.00,1111.0,cwc,2013-08-17 20:05:00,
2013-08-17 14:10:00,91.9,62.4,29.69,SSW,202,4.0,-999.0,18,-99.99,,,0.00,638.0,cwc,2013-08-17 20:10:00,
2013-08-17 14:15:00,92.3,62.4,29.69,South,180,7.0,-999.0,17,-99.99,,,0.00,1151.0,cwc,2013-08-17 20:15:00,
2013-08-17 14:25:00,91.2,61.3,29.68,South,182,5.0,-999.0,17,-99.99,,,0.00,1085.0,cwc,2013-08-17 20:25:00,
2013-08-17 14:35:00,91.2,61.3,29.67,South,187,2.0,-999.0,17,-99.99,,,0.00,1171.0,cwc,2013-08-17 20:35:00,
2013-08-17 14:40:00,91.1,61.2,29.68,SW,215,1.0,-999.0,17,-99.99,,,0.00,332.0,cwc,2013-08-17 20:40:00,
2013-08-17 14:45:00,90.6,60.7,29.67,WSW,244,2.0,-999.0,17,-99.99,,,0.00,1002.0,cwc,2013-08-17 20:45:00,
2013-08-17 14:55:00,90.4,60.5,29.67,South,184,4.0,-999.0,17,-99.99,,,0.00,550.0,cwc,2013-08-17 20:55:00,
2013-08-17 15:00:00,90.5,60.6,29.66,SSW,211,7.0,-999.0,17,-99.99,,,0.00,993.0,cwc,2013-08-17 21:00:00,
2013-08-17 15:10:00,91.5,61.3,29.66,South,171,1.0,-999.0,16,-99.99,,,0.00,1018.0,cwc,2013-08-17 21:10:00,
2013-08-17 15:15:00,91.3,61.1,29.66,ESE,120,2.0,-999.0,16,-99.99,,,0.00,615.0,cwc,2013-08-17 21:15:00,
2013-08-17 15:20:00,91.5,61.3,29.66,SSW,204,0.0,-999.0,16,-99.99,,,0.00,285.0,cwc,2013-08-17 21:20:00,
2013-08-17 15:25:00,91.1,61.2,29.66,NE,56,2.0,-999.0,17,-99.99,,,0.00,183.0,cwc,2013-08-17 21:25:00,
2013-08-17 15:30:00,90.3,60.8,29.66,North,355,7.0,-999.0,18,-99.99,,,0.00,292.0,cwc,2013-08-17 21:30:00,
2013-08-17 15:35:00,89.9,60.4,29.65,NNE,24,10.0,-999.0,18,-99.99,,,0.00,851.0,cwc,2013-08-17 21:35:00,
2013-08-17 15:40:00,89.8,60.3,29.65,NW,313,2.0,-999.0,18,-99.99,,,0.00,626.0,cwc,2013-08-17 21:40:00,
2013-08-17 15:45:00,90.1,60.6,29.65,SSE,148,3.0,-999.0,18,-99.99,,,0.00,171.0,cwc,2013-08-17 21:45:00,
2013-08-17 15:50:00,89.7,60.2,29.64,North,5,5.0,-999.0,18,-99.99,,,0.00,234.0,cwc,2013-08-17 21:50:00,
2013-08-17 15:55:00,89.3,59.8,29.65,NNW,341,10.0,-999.0,18,-99.99,,,0.00,218.0,cwc,2013-08-17 21:55:00,
2013-08-17 16:00:00,89.0,59.8,29.64,North,9,11.0,-999.0,19,-99.99,,,0.00,301.0,cwc,2013-08-17 22:00:00,
2013-08-17 16:05:00,88.9,59.4,29.64,NE,42,3.0,-999.0,18,-99.99,,,0.00,230.0,cwc,2013-08-17 22:05:00,
2013-08-17 16:10:00,88.8,59.3,29.64,NNE,20,7.0,-999.0,18,-99.99,,,0.00,318.0,cwc,2013-08-17 22:10:00,
2013-08-17 16:15:00,89.0,59.5,29.64,NNE,14,5.0,-999.0,18,-99.99,,,0.00,332.0,cwc,2013-08-17 22:15:00,
2013-08-17 16:25:00,89.2,59.7,29.63,NNE,28,3.0,-999.0,18,-99.99,,,0.00,269.0,cwc,2013-08-17 22:25:00,
2013-08-17 16:35:00,89.2,59.7,29.63,NE,42,1.0,-999.0,18,-99.99,,,0.00,250.0,cwc,2013-08-17 22:35:00,
2013-08-17 16:40:00,89.4,59.9,29.63,NE,35,1.0,-999.0,18,-99.99,,,0.00,246.0,cwc,2013-08-17 22:40:00,
2013-08-17 16:45:00,89.6,59.7,29.63,NE,40,2.0,-999.0,17,-99.99,,,0.00,362.0,cwc,2013-08-17 22:45:00,
2013-08-17 16:55:00,90.1,60.2,29.62,SW,223,0.0,-999.0,17,-99.99,,,0.00,714.0,cwc,2013-08-17 22:55:00,
2013-08-17 17:00:00,90.9,61.0,29.62,SW,222,0.0,-999.0,17,-99.99,,,0.00,629.0,cwc,2013-08-17 23:00:00,
2013-08-17 17:05:00,91.9,61.7,29.62,SSW,207,0.0,-999.0,16,-99.99,,,0.00,599.0,cwc,2013-08-17 23:05:00,
2013-08-17 17:10:00,92.4,61.8,29.62,NNW,340,0.0,-999.0,15,-99.99,,,0.00,512.0,cwc,2013-08-17 23:10:00,
2013-08-17 17:15:00,92.6,62.0,29.62,SW,214,5.0,-999.0,15,-99.99,,,0.00,557.0,cwc,2013-08-17 23:15:00,
2013-08-17 17:20:00,92.9,62.3,29.62,SSW,211,0.0,-999.0,15,-99.99,,,0.00,543.0,cwc,2013-08-17 23:20:00,
2013-08-17 17:25:00,93.1,62.5,29.62,South,188,8.0,-999.0,15,-99.99,,,0.00,425.0,cwc,2013-08-17 23:25:00,
2013-08-17 17:30:00,92.7,62.1,29.61,NNW,344,0.0,-999.0,15,-99.99,,,0.00,278.0,cwc,2013-08-17 23:30:00,
2013-08-17 17:35:00,92.0,61.4,29.61,NNW,342,2.0,-999.0,15,-99.99,,,0.00,279.0,cwc,2013-08-17 23:35:00,
2013-08-17 17:40:00,91.4,60.8,29.61,NNW,344,1.0,-999.0,15,-99.99,,,0.00,195.0,cwc,2013-08-17 23:40:00,
2013-08-17 17:45:00,90.8,60.2,29.61,NNW,346,2.0,-999.0,15,-99.99,,,0.00,176.0,cwc,2013-08-17 23:45:00,
2013-08-17 17:50:00,90.5,60.3,29.61,North,350,3.0,-999.0,16,-99.99,,,0.00,158.0,cwc,2013-08-17 23:50:00,
2013-08-17 17:55:00,90.2,60.0,29.61,NNE,28,5.0,-999.0,16,-99.99,,,0.00,179.0,cwc,2013-08-17 23:55:00,
2013-08-17 18:00:00,90.1,59.9,29.61,NNE,26,0.0,-999.0,16,-99.99,,,0.00,204.0,cwc,2013-08-18 00:00:00,
2013-08-17 18:05:00,90.1,59.5,29.61,NNE,24,0.0,-999.0,15,-99.99,,,0.00,132.0,cwc,2013-08-18 00:05:00,
2013-08-17 18:10:00,90.1,59.5,29.61,NNE,24,0.0,-999.0,15,-99.99,,,0.00,176.0,cwc,2013-08-18 00:10:00,
2013-08-17 18:15:00,90.1,59.5,29.61,NNE,24,0.0,-999.0,15,-99.99,,,0.00,128.0,cwc,2013-08-18 00:15:00,
2013-08-17 18:20:00,90.1,59.5,29.61,NNE,24,0.0,-999.0,15,-99.99,,,0.00,125.0,cwc,2013-08-18 00:20:00,
2013-08-17 18:25:00,90.1,59.5,29.60,NNE,24,1.0,-999.0,15,-99.99,,,0.00,104.0,cwc,2013-08-18 00:25:00,
2013-08-17 18:30:00,90.0,60.5,29.61,NE,36,4.0,-999.0,18,-99.99,,,0.00,91.0,cwc,2013-08-18 00:30:00,
2013-08-17 18:35:00,89.4,60.2,29.61,NE,36,1.0,-999.0,19,-99.99,,,0.00,84.0,cwc,2013-08-18 00:35:00,
2013-08-17 18:40:00,88.8,60.0,29.61,NE,39,3.0,-999.0,20,-99.99,,,0.00,77.0,cwc,2013-08-18 00:40:00,
2013-08-17 18:45:00,88.4,59.6,29.61,ENE,60,2.0,-999.0,20,-99.99,,,0.00,67.0,cwc,2013-08-18 00:45:00,
2013-08-17 18:50:00,87.9,59.1,29.61,NNE,30,3.0,-999.0,20,-99.99,,,0.00,62.0,cwc,2013-08-18 00:50:00,
2013-08-17 18:55:00,87.5,59.1,29.61,NE,44,8.0,-999.0,21,-99.99,,,0.00,58.0,cwc,2013-08-18 00:55:00,
2013-08-17 19:00:00,87.0,58.6,29.61,NE,41,11.0,-999.0,21,-99.99,,,0.00,51.0,cwc,2013-08-18 01:00:00,
2013-08-17 19:05:00,86.3,57.9,29.61,East,101,6.0,-999.0,21,-99.99,,,0.00,49.0,cwc,2013-08-18 01:05:00,
2013-08-17 19:10:00,86.0,57.9,29.62,ENE,68,1.0,-999.0,22,-99.99,,,0.00,47.0,cwc,2013-08-18 01:10:00,
2013-08-17 19:15:00,85.6,57.5,29.62,ENE,59,0.0,-999.0,22,-99.99,,,0.00,44.0,cwc,2013-08-18 01:15:00,
2013-08-17 19:20:00,85.4,57.0,29.63,East,79,7.0,-999.0,21,-99.99,,,0.00,37.0,cwc,2013-08-18 01:20:00,
2013-08-17 19:25:00,85.2,56.8,29.63,ENE,75,3.0,-999.0,21,-99.99,,,0.00,30.0,cwc,2013-08-18 01:25:00,
2013-08-17 19:30:00,85.0,56.6,29.64,East,86,5.0,-999.0,21,-99.99,,,0.00,23.0,cwc,2013-08-18 01:30:00,
2013-08-17 19:35:00,84.9,56.5,29.64,ENE,72,0.0,-999.0,21,-99.99,,,0.00,16.0,cwc,2013-08-18 01:35:00,
2013-08-17 19:40:00,84.7,56.3,29.64,East,96,1.0,-999.0,21,-99.99,,,0.00,11.0,cwc,2013-08-18 01:40:00,
2013-08-17 19:50:00,84.2,56.1,29.65,ESE,111,0.0,-999.0,22,-99.99,,,0.00,0.0,cwc,2013-08-18 01:50:00,
2013-08-17 19:55:00,84.0,55.9,29.65,ESE,119,4.0,-999.0,22,-99.99,,,0.00,0.0,cwc,2013-08-18 01:55:00,
2013-08-17 20:00:00,83.8,55.7,29.65,ESE,118,1.0,-999.0,22,-99.99,,,0.00,0.0,cwc,2013-08-18 02:00:00,
2013-08-17 20:05:00,83.6,55.9,29.65,ESE,119,0.0,-999.0,23,-99.99,,,0.00,0.0,cwc,2013-08-18 02:05:00,
2013-08-17 20:15:00,83.1,55.4,29.65,East,90,0.0,-999.0,23,-99.99,,,0.00,0.0,cwc,2013-08-18 02:15:00,
2013-08-17 20:30:00,82.4,55.0,29.66,ENE,74,1.0,-999.0,24,-99.99,,,0.00,0.0,cwc,2013-08-18 02:30:00,
2013-08-17 20:35:00,82.1,54.7,29.66,ENE,78,0.0,-999.0,24,-99.99,,,0.00,0.0,cwc,2013-08-18 02:35:00,
2013-08-17 20:45:00,81.6,54.2,29.67,ENE,76,0.0,-999.0,24,-99.99,,,0.00,0.0,cwc,2013-08-18 02:45:00,
2013-08-17 20:55:00,81.2,54.2,29.67,SSW,203,1.0,-999.0,25,-99.99,,,0.00,0.0,cwc,2013-08-18 02:55:00,
2013-08-17 21:00:00,81.1,54.1,29.67,SSW,203,0.0,-999.0,25,-99.99,,,0.00,0.0,cwc,2013-08-18 03:00:00,
2013-08-17 21:10:00,80.6,53.6,29.68,SSW,203,0.0,-999.0,25,-99.99,,,0.00,0.0,cwc,2013-08-18 03:10:00,
2013-08-17 21:20:00,79.8,53.2,29.69,SSW,203,0.0,-999.0,26,-99.99,,,0.00,0.0,cwc,2013-08-18 03:20:00,
2013-08-17 21:25:00,79.4,52.8,29.69,SSW,203,0.0,-999.0,26,-99.99,,,0.00,0.0,cwc,2013-08-18 03:25:00,
2013-08-17 21:30:00,78.7,52.4,29.69,SSW,203,1.0,-999.0,27,-99.99,,,0.00,0.0,cwc,2013-08-18 03:30:00,
2013-08-17 21:35:00,77.9,51.6,29.69,SSW,203,0.0,-999.0,27,-99.99,,,0.00,0.0,cwc,2013-08-18 03:35:00,
2013-08-17 21:45:00,76.4,50.5,29.69,SSW,203,3.0,-999.0,28,-99.99,,,0.00,0.0,cwc,2013-08-18 03:45:00,
2013-08-17 21:55:00,75.8,50.2,29.70,SSW,203,2.0,-999.0,29,-99.99,,,0.00,0.0,cwc,2013-08-18 03:55:00,
2013-08-17 22:00:00,75.7,50.1,29.70,SSW,203,0.0,-999.0,29,-99.99,,,0.00,0.0,cwc,2013-08-18 04:00:00,
2013-08-17 22:05:00,75.7,50.1,29.70,SSW,203,0.0,-999.0,29,-99.99,,,0.00,0.0,cwc,2013-08-18 04:05:00,
2013-08-17 22:10:00,75.7,50.1,29.71,SSW,203,1.0,-999.0,29,-99.99,,,0.00,0.0,cwc,2013-08-18 04:10:00,
2013-08-17 22:15:00,75.6,50.0,29.71,SSW,203,0.0,-999.0,29,-99.99,,,0.00,0.0,cwc,2013-08-18 04:15:00,
2013-08-17 22:20:00,75.4,49.8,29.71,SSW,203,0.0,-999.0,29,-99.99,,,0.00,0.0,cwc,2013-08-18 04:20:00,
2013-08-17 22:25:00,75.4,49.8,29.71,SSW,203,0.0,-999.0,29,-99.99,,,0.00,0.0,cwc,2013-08-18 04:25:00,
2013-08-17 22:30:00,75.0,49.4,29.72,SSW,203,2.0,-999.0,29,-99.99,,,0.00,0.0,cwc,2013-08-18 04:30:00,
2013-08-17 22:35:00,74.8,49.6,29.72,SSW,203,0.0,-999.0,30,-99.99,,,0.00,0.0,cwc,2013-08-18 04:35:00,
2013-08-17 22:40:00,74.6,49.0,29.72,SSW,203,0.0,-999.0,29,-99.99,,,0.00,0.0,cwc,2013-08-18 04:40:00,
2013-08-17 22:45:00,73.9,48.7,29.73,SSW,203,0.0,-999.0,30,-99.99,,,0.00,0.0,cwc,2013-08-18 04:45:00,
2013-08-17 22:50:00,73.1,47.9,29.73,SSW,203,1.0,-999.0,30,-99.99,,,0.00,0.0,cwc,2013-08-18 04:50:00,
2013-08-17 22:55:00,72.6,47.8,29.73,SSW,203,0.0,-999.0,31,-99.99,,,0.00,0.0,cwc,2013-08-18 04:55:00,
2013-08-17 23:00:00,72.3,47.5,29.73,SSW,203,0.0,-999.0,31,-99.99,,,0.00,0.0,cwc,2013-08-18 05:00:00,
2013-08-17 23:05:00,72.1,47.3,29.74,SSW,203,3.0,-999.0,31,-99.99,,,0.00,0.0,cwc,2013-08-18 05:05:00,
2013-08-17 23:10:00,71.9,47.1,29.74,SSW,203,2.0,-999.0,31,-99.99,,,0.00,0.0,cwc,2013-08-18 05:10:00,
2013-08-17 23:15:00,71.7,46.9,29.74,SSW,203,0.0,-999.0,31,-99.99,,,0.00,0.0,cwc,2013-08-18 05:15:00,
2013-08-17 23:20:00,71.5,47.0,29.74,SSW,203,0.0,-999.0,32,-99.99,,,0.00,0.0,cwc,2013-08-18 05:20:00,
2013-08-17 23:25:00,71.2,47.4,29.74,SSW,203,0.0,-999.0,34,-99.99,,,0.00,0.0,cwc,2013-08-18 05:25:00,
2013-08-17 23:30:00,70.3,45.8,29.74,SSW,203,2.0,-999.0,32,-99.99,,,0.00,0.0,cwc,2013-08-18 05:30:00,
2013-08-17 23:35:00,69.7,45.6,29.75,SSW,203,2.0,-999.0,33,-99.99,,,0.00,0.0,cwc,2013-08-18 05:35:00,
2013-08-17 23:40:00,69.1,45.3,29.74,SSW,203,0.0,-999.0,34,-99.99,,,0.00,0.0,cwc,2013-08-18 05:40:00,
2013-08-17 23:45:00,68.6,45.2,29.74,SSW,203,0.0,-999.0,35,-99.99,,,0.00,0.0,cwc,2013-08-18 05:45:00,
2013-08-17 23:50:00,68.1,44.7,29.75,SSW,203,0.0,-999.0,35,-99.99,,,0.00,0.0,cwc,2013-08-18 05:50:00,
2013-08-17 23:55:00,67.6,44.6,29.75,SSW,203,0.0,-999.0,36,-99.99,,,0.00,0.0,cwc,2013-08-18 05:55:00,